Regional Weather Roundup
Issued by NWS Portland, ME

Current Version | Previous Version | Text Only | Print | Product List | Glossary On
Versions: 1 2 3 4 5 6 7 8 9 10 11 12 13 14 15 16 17 18 19 20 21 22 23 24 25 26 27 28 29 30 31 32 33 34 35 36 37 38 39 40 41 42 43 44 45 46 47 48 49 50
000 ASUS41 KGYX 191110 RWRGYX WEATHER ROUNDUP FOR MAINE AND NEW HAMPSHIRE NATIONAL WEATHER SERVICE GRAY ME 700 AM EDT SUN AUG 19 2018 MEZ002-005-006-010-012-015-018-020-021-024-026-027-029-191200- MAINE CITY SKY/WX TMP DP RH WIND PRES REMARKS PORTLAND FAIR 61 59 93 N3 30.01R SANFORD FAIR 61 59 93 N5 30.02R BAR HARBOR FAIR 59 58 96 N6 30.02R WISCASSET FAIR 61 59 93 CALM 30.02R ROCKLAND FAIR 63 59 87 NE7 30.01R FRYEBURG FAIR 56 56 100 W3 30.05R LEWISTONAUBURN FAIR 57 56 96 CALM 30.04R AUGUSTA FAIR 59 58 96 NW5 30.04R WATERVILLE FAIR 59 56 89 N5 30.02R BANGOR FAIR 60 57 89 N8 30.04R GREENVILLE N/A 59 56 89 CALM 30.06R MILLINOCKET NOT AVBL HOULTON FAIR 52 52 100 CALM 30.06R PRESQUE ISLE FAIR 50 49 96 CALM 30.10R FRENCHVILLE FAIR 54 47 77 N5 30.09R CARIBOU FAIR 55 49 80 N5 30.08R $$ NHZ002-005-008-009-011-012-014-191200- NEW HAMPSHIRE CITY SKY/WX TMP DP RH WIND PRES REMARKS PORTSMOUTH PTSUNNY 63 58 84 N7 29.99R ROCHESTER FAIR 61 59 93 N5 30.01R NASHUA FAIR 64 62 93 NW6 30.01R MANCHESTER FAIR 65 60 84 N6 30.00R CONCORD FAIR 60 58 92 CALM 30.02R PLYMOUTH CLOUDY 58 57 96 NW3 30.04R FOG BERLIN FOG 54 54 100 SE3 30.09R VSB 1/4 WHITEFIELD FOG 53 53 100 CALM 30.07R VSB 1/4 JAFFREY FAIR 62 61 96 CALM 30.03R KEENE FAIR N/A N/A N/A CALM 30.02R LEBANON CLOUDY 62 58 86 N8 30.04R FOG MT WASHINGTON FOG 43 43 100 E26 N/A VSB 0 $$ VTZ005-007-008-191200- VERMONT CITY SKY/WX TMP DP RH WIND PRES REMARKS ST JOHNSBURY N/A 53 53 100 MISG 30.05R MONTPELIER FOG 56 56 100 CALM 30.10R VSB 1/4 BURLINGTON FOG 60 58 92 E5 30.04R VSB 1/8 $$ MAZ007-012-024-CTZ003-RIZ002-NYZ038-NYZ072-191200- SOUTHERN NEW ENGLAND AND NY CITY SKY/WX TMP DP RH WIND PRES REMARKS BOSTON PTSUNNY 68 62 81 NE13 29.97R WORCESTER PTSUNNY 61 61 100 NE12 29.99R NANTUCKET CLOUDY 67 65 93 NE15 29.90R PROVIDENCE PTSUNNY 66 63 88 NE10 29.95R HARTFORD MOCLDY 65 62 90 N9 29.97R ALBANY MOCLDY 66 61 84 N6 30.00R NEW YORK CITY CLOUDY 71 64 78 NE21 29.91R $$ ANZ081-ANZ082-ANZ150-NHZ014-MEZ023>029-191200- COASTAL MARINE OBSERVATIONS STATION/POSITION TIME TEMP WIND PRES WAVE AIR SEA DIR/SP/G HT/PER (UTC) (F) (DEG/KT/KT) (MB) (FT/S) MOUNT DESERT ROC 1100 58 360/ 20/ 22 1015.4R MATINICUS ROCK 1000 60 20/ 11/ 12 1014.7R ISLE OF SHOALS 1000 65 20/ 14/ 16 1014.3R JEFFREYS LEDGE 1006 67 N/A 4/ 5 $$ .............KEY.............. WCI - WIND CHILL TC - TEMPERATURE IN CELSIUS VSB - VISIBILITY IN MILES HX - HEAT INDEX FAIR- INDICATES FEW OR NO CLOUDS BELOW 12,000 FT, WITH NO SIGNIFICANT WEATHER AND/OR OBSTRUCTIONS TO VISIBILITY.

USA.gov is the U.S. government's official web portal to all federal, state and local government web resources and services.